Location: ??
(34.6726°N, 135.7462°E)
Time: 18:56:22
(UTC+00:00)

Daily predictions for brighter satellites

Satellite Brightness Start Highest point End
(mag) Time Altitude Azimuth Time Altitude Azimuth Time Altitude Azimuth
ADEOS Rocket 4.2 18:45:14 10° SSE 18:48:10 32° SSE 18:48:10 32° SSE
Milstar 3 Cent rocket 3.7 18:59:48 41° SSW 19:01:36 47° SSE 19:13:39 10° E
CZ-4B R/B 4.5 19:08:54 10° ESE 19:09:55 14° E 19:09:55 14° E
SL-16 R/B 2.3 19:16:10 64° NNE 19:16:48 70° ENE 19:22:26 10° SSE
ADEOS 4.1 19:11:42 10° NNE 19:16:50 55° E 19:21:56 10° S
OAO 3 Rocket 3.8 19:19:45 52° E 19:19:45 52° E 19:23:22 10° E
ATLAS 2AS CENTAUR R/B 4.3 19:15:32 10° S 19:22:37 39° ESE 19:29:48 10° NE
SJ 16-02 4.2 19:20:42 10° SE 19:23:32 17° E 19:26:22 10° NE
Meteor 1-31 Rocket 4.0 19:21:33 10° NNE 19:25:13 41° E 19:28:49 10° S
CENTAUR R/B 4.5 19:21:38 11° NNW 19:28:45 35° NE 19:36:38 10° ESE
USA 234 3.6 19:22:43 10° NE 19:29:10 61° SE 19:35:37 10° SSW
GPS 2-04 Rocket1 4.4 19:31:38 25° SSE 19:31:44 25° SSE 19:34:54 10° E
Lacrosse 5 4.0 19:28:24 10° S 19:32:32 26° ESE 19:36:40 10° ENE
Cosmos 1777 Rocket 4.0 19:27:25 10° S 19:32:35 76° ESE 19:37:47 10° NNE
Cosmos 1745 Rocket 3.9 19:27:01 10° S 19:33:16 84° W 19:39:36 10° N
CZ-3 R/B 4.4 19:22:46 32° W 19:36:19 45° SW 19:47:31 10° SSE
Cosmos 1441 Rocket 4.4 19:33:57 10° SSE 19:37:34 42° E 19:41:10 10° NNE
SL-08 ROCKET BODY 4.3 19:33:06 10° SSW 19:39:02 61° W 19:45:07 10° N
METEOR-M 4.0 19:37:41 10° NNE 19:43:03 88° ESE 19:48:23 10° SSW
Cosmos 2263 Rocket 2.1 19:45:41 10° SSW 19:51:19 88° ESE 19:57:01 10° NNE
USA 238 DEB 4.4 19:46:29 14° NNW 19:52:44 58° NE 20:00:10 10° SE
USA 238 4.4 19:46:33 14° NNW 19:52:50 57° NE 20:00:15 10° SE
ALOS 2.6 19:49:25 10° N 19:56:49 22° SW 19:58:29 10° SSW
Cosmos 1709 Rocket 4.0 19:52:53 10° S 19:59:12 87° E 20:05:37 10° N
USA 276 2.6 20:00:01 53° NNE 20:00:05 53° NE 20:03:11 10° ESE
OAO 2 Rocket 4.1 19:57:28 24° SW 20:00:12 49° SSE 20:05:10 10° E
ERBS 4.4 20:07:09 16° N 20:07:09 16° N 20:08:07 10° NNE
SJ-12 3.7 20:01:13 10° N 20:05:17 86° WNW 20:09:20 10° SSW
deb Chang Zheng 4 3.7 20:09:06 10° N 20:13:17 48° WNW 20:17:27 10° SSW
SKYMED 2 3.7 20:09:38 10° SSE 20:13:57 75° ENE 20:18:18 10° N
Atlas Centaur 2 3.6 20:11:11 10° SW 20:16:06 28° SSE 20:20:09 10° ESE
H-2A R/B 3.6 20:16:47 10° NNE 20:20:37 53° E 20:24:24 10° S
Cosmos 1943 3.9 20:17:46 10° NNW 20:23:23 55° ENE 20:28:56 10° SE
Delta 2 Rocket 3.5 20:20:57 28° W 20:23:24 86° SSW 20:27:39 10° ESE
FENGYUN 3A 4.4 20:18:46 10° N 20:23:24 30° WNW 20:28:02 10° SW
SAR-Lupe-4 3.4 20:21:26 10° S 20:24:58 71° WSW 20:28:31 10° NNW
Cosmos 1633 2.3 20:22:15 10° SSW 20:25:44 66° W 20:29:15 10° N
Envisat 4.2 20:22:42 10° NNE 20:27:34 45° E 20:32:23 10° S
Cosmos 1689 Rocket 1.8 20:28:08 10° SSE 20:30:59 87° W 20:33:51 10° NNW
Cosmos 1933 3.3 20:27:54 10° N 20:32:01 85° W 20:36:06 10° S
ASTRO E2 3.2 20:30:35 19° WSW 20:33:14 53° S 20:37:06 10° ESE
YAOGAN 6 4.0 20:31:16 10° NNE 20:34:35 40° E 20:37:52 10° S
ERS-2 3.2 20:34:11 10° SSW 20:37:10 24° W 20:38:22 20° WNW
RESURS DK-1 4.1 20:35:23 10° S 20:39:12 36° ESE 20:43:00 10° NE
SAR-Lupe-1 4.4 20:38:45 10° S 20:42:09 42° W 20:45:33 10° NNW
CZ-4B R/B 2.9 20:40:55 10° SW 20:43:03 17° W 20:43:03 17° W
PSLV R/B 3.8 20:39:19 10° NNE 20:43:13 85° ESE 20:47:00 10° SSW
FALCON 9 DEB 3.5 20:40:38 10° SSW 20:43:46 59° SE 20:46:56 10° NE
Cosmos 2151 4.3 20:41:50 10° WSW 20:44:50 19° WNW 20:47:49 10° NNW
SL-8 R/B 4.4 20:42:31 16° WNW 20:45:50 39° SW 20:50:17 10° SSE
SL-4 R/B 4.0 20:47:38 11° NW 20:48:37 12° NNW 20:50:09 10° N
Okean 3 Rocket 4.2 20:44:57 10° SW 20:48:54 33° W 20:52:53 10° NNW
Cosmos 1151 Rocket 2.9 20:44:56 10° NNW 20:49:10 68° W 20:53:24 10° S
Meteor PRIRODA 4.4 20:46:34 10° N 20:49:53 31° WNW 20:53:11 10° SW
Cosmos 1328 Rocket 3.5 20:48:03 10° N 20:52:27 73° W 20:56:50 10° S
EO 1 Delta rocket 4.3 20:46:46 10° SSE 20:52:44 83° E 20:57:39 10° N
Cosmos 389 Rocket 4.1 20:52:05 14° WNW 20:52:44 15° W 20:54:43 10° SW
Cosmos 1782 3.0 20:49:08 10° N 20:53:10 76° E 20:57:10 10° S
Lacrosse 4 Rocket 2.9 20:49:27 10° N 20:53:31 38° ENE 20:57:37 10° SE
NOSS 3-4 (A) 3.8 20:48:27 10° WSW 20:53:55 39° NW 20:59:39 10° NNE
NOSS 3-4 (C) 3.8 20:48:33 10° WSW 20:54:01 40° NW 20:59:48 10° NNE
Cosmos 1606 4.1 20:52:40 10° NW 20:55:26 19° W 20:58:11 10° SW
NOSS 3-2 (C) 4.2 20:50:39 10° NNW 20:58:35 79° WSW 21:07:19 10° SSE
Cosmos 1766 Rocket 4.4 20:54:45 10° SW 20:58:37 28° WNW 21:02:30 10° NNW
Meteor 1-26 Rocket 4.2 20:53:39 10° NNW 20:59:25 68° W 21:04:58 10° S
PAYLOAD B 4.5 20:54:11 10° NNE 20:59:43 77° ESE 21:05:11 10° S
SL-16 R/B 3.9 20:58:08 10° WNW 21:00:11 13° W 21:02:29 10° WSW
Cosmos 1461 3.4 20:57:05 10° NNW 21:01:46 73° ENE 21:06:13 10° SE
SJ 16-02 2.0 20:57:47 10° SW 21:01:46 33° WNW 21:05:48 10° N
COSMO-SKYMED 1 3.5 20:58:20 10° SSW 21:02:04 28° W 21:05:49 10° NW
OAO 3 Rocket 3.4 20:57:33 11° W 21:02:06 62° SSW 21:06:48 10° ESE
Cosmos 1743 Rocket 3.7 20:59:01 10° S 21:03:25 81° E 21:07:52 10° N
CZ-4B DEB 4.2 21:02:36 10° N 21:08:02 72° WNW 21:13:28 10° SSW
Cosmos 1844 4.3 21:03:07 10° S 21:08:34 61° ESE 21:14:03 10° NNE
MOS 1-B 4.4 21:03:10 10° NNE 21:09:00 81° WNW 21:14:48 10° SSW
Cosmos 990 Rocket 4.0 21:03:59 10° SSW 21:09:09 64° WNW 21:14:22 10° N
Cosmos 1408 Rocket 4.0 21:05:36 10° SSW 21:09:47 40° W 21:14:00 10° N
FALCON 9 DEB 2.9 21:07:35 10° SW 21:10:45 68° NW 21:13:56 10° NE
GPS 2-04 Rocket1 2.6 21:07:09 10° WSW 21:10:58 78° SSE 21:14:36 10° E
USA 234 3.9 21:06:03 10° NNE 21:11:54 36° NW 21:17:44 10° W
CZ-4B R/B 4.4 21:08:45 10° NNW 21:11:55 19° WNW 21:15:04 10° WSW
Cosmos 1844 Rocket 2.8 21:06:32 10° SSW 21:12:10 85° ESE 21:17:51 10° NNE
ATLAS 2AS CENTAUR R/B 3.3 21:05:58 10° SW 21:13:30 46° NW 21:21:03 10° NNE
Cosmos 405 Rocket 2.9 21:10:43 10° S 21:14:21 72° E 21:18:02 10° NNE
Lacrosse 5 2.3 21:10:29 10° WSW 21:15:16 42° NW 21:20:05 10° NNE
CZ-4C R/B 2.0 21:11:47 10° SW 21:16:23 56° NW 21:21:49 10° NNE
NOAA 6 4.1 21:11:24 10° N 21:16:26 61° WNW 21:21:27 10° SSW
CENTAUR R/B 3.5 21:11:38 10° NW 21:19:57 61° WSW 21:28:38 10° SSE
